Regional Weather Roundup
Issued by NWS

Home | Current Version | Previous Version | Graphics & Text | Print | Product List | Glossary On
Versions: 1 2 3 4 5 6 7 8 9 10 11 12 13 14 15 16 17 18 19 20 21 22 23 24 25 26 27 28 29 30 31 32 33 34 35 36 37 38 39 40 41 42 43 44 45 46 47 48 49 50
000
ASUS45 KSLC 192010
RWRUT

UTAH REGIONAL WEATHER ROUNDUP
NATIONAL WEATHER SERVICE SALT LAKE CITY UT
200 PM MDT TUE AUG 19 2014

UTZ001>011-023>025-192100-

NORTHERN UTAH

CITY           SKY/WX    TMP DP  RH WIND       PRES   REMARKS
HILL AFB       CLOUDY    67  54  63 E6        30.00F
LOGAN          SUNNY     74  51  44 S16       29.96F
OGDEN          CLOUDY    69  51  52 S20G25    29.97F
PROVO AIRPORT  CLOUDY    68  57  68 SE5       30.02F
SALT LAKE CITY CLOUDY    67  60  78 NE5       29.98F
VERNAL         PTSUNNY   71  53  52 SE9       30.03F
WENDOVER       CLOUDY    79  48  34 SE8       29.93F
HEBER CITY     CLOUDY    61  54  77 CALM      30.06F
WEST JORDAN    CLOUDY    66  61  82 E3        30.01F

$$

UTZ012>022-026-027-192100-

SOUTHERN UTAH

CITY           SKY/WX    TMP DP  RH WIND       PRES   REMARKS
BRYCE CANYON   RAIN      52  50  93 S5        30.21R FOG
CEDAR CITY     CLOUDY    62  56  80 VRB5      30.05F
MILFORD        CLOUDY    69  55  60 SW12      30.00F
MOAB/CYNLANDS  PTSUNNY   79  52  38 VRB5      29.94F
PRICE          CLOUDY    72  49  44 SE20      30.02F
ST GEORGE      CLOUDY    70  61  73 CALM      29.97F
KANAB          PTSUNNY   61  61 100 CALM      30.10

$$

REGIONAL REPORTS     COLORADO/ARIZONA

CITY           SKY/WX    TMP DP  RH WIND       PRES   REMARKS
CRAIG, CO      CLOUDY    62  54  74 NW3       30.14F
GRAND JUNCTION PTSUNNY   73  56  54 NW17G25   29.98F
RIFLE          CLOUDY    78  45  30 MISG      30.01F
MONTROSE       PTSUNNY   81  48  31 NW8       30.03F
CORTEZ         MOSUNNY   82  45  27 S9        30.03F
PAGE, AZ       CLOUDY    72  60  66 N12       29.99S
GRAND CANYON   CLOUDY    57  55  93 S12       30.14F
KINGMAN        MOSUNNY   82  58  43 SW3       29.94F
FLAGSTAFF      RAIN      56  54  93 S10       30.17F FOG

$$

REGIONAL REPORTS    NEVADA/IDAHO/WYOMING

CITY           SKY/WX    TMP DP  RH WIND       PRES   REMARKS
LAS VEGAS, NV  MOSUNNY   88  60  38 NE12      29.80F
ELY            SUNNY     71  50  47 CALM      30.03F
ELKO           SUNNY     86  42  21 VRB6      29.87F
POCATELLO, ID  PTSUNNY   82  47  29 S18       29.91F
BURLEY         PTSUNNY   83  49  30 S15G25    29.84F
EVANSTON, WY   LGT RAIN  55  52  89 S5        30.15F
ROCK SPRINGS   CLOUDY    58  51  78 NW3       30.12F

$$


USA.gov is the U.S. government's official web portal to all federal, state and local government web resources and services.